Theta_e
348 349 348 349 349 349 349 349 348 346 344 342 339 336 336 336 336 336 336 337 337 336 335 334 331 329 330 332 333 332 333 334 334 335 336 336 336 336 336 337 337 337 337 337 337 338 338 339 339 339 340 340 339 337 335 331 329 328 328 328 329 331 333 335 335 332 328 328 328 328 329 330 330 329 329 329 329 329 330 330 330 330 330 330 330
348 349 348 349 349 348 349 349 349 348 347 345 342 338 337 336 335 337 336 336 336 336 335 333 332 330 329 331 333 334 333 334 334 334 335 335 336 337 337 337 337 337 337 337 336 336 337 337 337 337 339 339 339 339 338 336 333 329 327 326 326 328 330 333 334 332 329 327 327 328 328 328 328 328 328 328 329 328 328 328 329 329 329 330 330
348 349 349 349 349 349 349 349 349 349 348 348 345 342 339 338 337 336 335 335 335 335 334 333 331 330 329 329 331 333 333 333 333 333 334 334 335 336 336 336 335 335 336 336 335 336 335 336 335 335 336 337 337 337 338 337 337 335 332 330 327 326 327 330 331 332 330 328 327 327 327 327 328 327 328 328 327 328 328 327 327 327 326 327 328
349 349 349 348 349 349 349 349 349 349 349 348 347 345 343 341 339 337 337 336 335 334 333 332 331 330 330 329 330 331 332 333 332 333 333 333 334 334 334 334 334 333 333 333 333 334 334 334 333 333 334 335 335 336 336 336 336 336 336 335 333 330 328 328 329 330 330 329 327 327 328 328 328 327 328 328 328 328 328 328 327 327 326 326 326
349 349 349 349 349 349 349 349 349 349 349 348 348 347 346 345 342 340 338 337 336 335 333 332 331 330 330 329 330 331 332 332 333 333 333 333 333 334 333 333 333 332 331 332 332 331 332 332 331 332 334 334 333 333 335 335 335 336 336 336 336 335 334 332 330 329 329 328 326 326 327 327 327 327 327 327 328 328 328 328 328 328 327 327 326
350 349 349 349 349 349 349 349 349 349 349 349 348 348 348 347 345 343 340 338 336 335 334 333 331 330 330 329 329 329 330 331 332 332 332 332 332 332 333 333 333 333 332 331 331 331 331 331 330 331 332 332 332 332 333 333 334 335 336 336 336 337 337 337 336 335 333 332 331 330 330 329 329 329 328 329 329 329 328 327 326 326 326 325 325
349 350 349 349 349 350 349 349 348 348 349 348 349 348 348 348 347 344 340 339 336 335 334 333 332 331 330 330 330 330 330 329 330 331 331 331 330 330 331 332 332 332 332 332 332 331 332 331 331 331 332 331 332 332 331 332 332 333 333 335 337 337 338 338 338 338 338 337 336 335 335 335 334 334 333 334 333 333 331 330 329 328 327 328 327
349 349 350 350 349 349 349 349 349 348 348 348 348 348 349 348 347 346 342 340 336 335 334 334 332 332 331 330 330 331 330 330 330 330 329 329 329 329 329 330 331 331 331 332 333 333 332 332 332 332 332 332 332 332 332 332 332 332 332 333 334 335 336 336 338 338 339 339 338 337 337 337 337 337 336 336 336 335 334 335 334 333 332 333 332
350 350 350 350 350 349 349 349 348 349 349 348 348 349 349 348 348 347 345 341 338 335 334 333 333 332 332 331 331 331 331 330 329 330 329 328 329 329 329 329 330 330 331 332 332 333 333 332 332 332 333 333 333 333 334 333 334 334 333 333 334 335 335 336 336 337 338 339 339 338 338 338 337 337 336 335 335 334 334 336 336 334 334 335 333
350 350 350 350 350 349 349 349 349 349 349 348 349 348 348 349 349 349 347 344 342 339 337 336 335 333 332 332 331 332 331 330 330 329 329 329 329 329 329 329 330 330 330 331 332 332 333 333 333 334 334 335 335 335 335 335 335 335 335 335 336 337 338 338 338 338 339 340 340 339 339 339 338 338 338 336 335 335 335 336 336 336 337 337 335
350 350 350 350 350 350 350 350 349 350 349 349 349 349 349 349 349 349 348 347 345 343 341 339 337 335 333 333 332 332 331 330 330 330 330 329 330 329 329 330 329 330 330 331 332 332 333 333 334 335 336 337 337 337 337 338 339 338 338 339 339 341 342 342 342 342 342 342 342 342 342 341 339 339 339 338 338 338 339 340 340 341 341 341 340
350 350 350 350 350 350 350 350 350 350 349 350 349 349 349 350 350 350 349 349 347 346 344 341 338 336 335 334 333 332 331 330 330 330 330 330 329 330 330 330 330 330 330 331 331 332 333 333 335 335 337 337 338 339 340 341 342 342 342 342 343 343 344 345 345 345 345 345 344 344 344 343 342 342 343 343 344 345 346 346 345 346 346 346 346
350 350 350 350 350 350 350 350 350 350 350 349 349 350 350 350 350 350 350 349 350 348 346 344 340 338 336 335 334 332 332 331 330 330 330 330 330 330 331 331 331 330 331 331 332 333 333 335 335 336 337 339 340 341 343 343 344 345 346 345 345 346 347 347 348 347 348 348 348 348 347 348 347 347 348 349 350 350 350 350 349 349 350 349 349
350 351 350 351 351 351 351 351 350 350 349 350 350 350 351 351 351 351 351 352 352 351 350 347 345 342 339 336 334 333 332 332 331 331 331 331 331 332 332 333 332 332 332 333 333 334 335 336 337 338 339 341 342 343 345 345 347 347 348 348 348 348 350 351 350 351 351 351 351 351 351 352 352 353 353 354 353 353 353 353 352 352 352 351 351
350 350 350 351 351 351 351 351 351 350 350 350 351 351 351 351 352 352 352 353 354 354 354 352 351 347 344 341 338 335 333 332 332 332 332 332 333 335 335 334 334 334 334 334 335 335 336 337 338 340 341 343 344 345 346 347 349 350 350 350 350 350 352 352 352 352 352 353 354 354 353 354 354 354 356 356 355 355 354 354 353 351 351 351 350
349 349 350 350 350 351 351 351 351 351 351 352 352 352 352 352 353 353 353 354 355 356 356 356 355 353 352 350 347 341 334 333 333 332 333 334 335 336 336 336 336 336 335 335 336 337 338 340 341 342 343 344 345 346 348 349 350 351 351 352 352 352 353 353 353 354 354 354 355 353 350 350 353 355 357 357 356 355 353 352 353 350 349 348 349
349 349 350 350 349 350 350 351 351 351 352 352 352 352 353 353 354 354 355 356 356 357 357 357 358 357 356 355 352 346 340 337 336 335 335 338 339 338 338 337 337 337 336 336 337 338 340 341 342 344 345 345 346 347 349 350 350 352 353 352 353 354 354 354 354 353 352 350 351 351 349 350 353 355 356 356 355 354 352 352 353 351 348 349 349
349 349 349 348 348 349 349 350 350 351 352 353 352 354 354 355 356 356 356 357 358 359 359 359 359 359 358 357 355 351 347 343 342 342 343 344 343 342 341 340 340 339 338 338 339 340 341 343 344 345 346 346 347 348 349 351 352 352 353 354 354 355 355 355 353 351 348 348 351 353 353 353 354 354 354 354 354 353 352 352 353 352 351 351 351
348 348 348 346 348 348 348 350 350 351 352 353 353 355 356 357 358 358 358 359 359 360 360 360 360 360 360 359 359 357 354 352 351 350 349 350 349 347 346 344 343 342 340 340 340 341 342 344 345 347 348 348 349 350 351 353 353 354 355 355 355 356 355 355 355 352 351 353 354 355 354 355 354 353 353 355 354 353 352 352 352 352 351 352 352
348 347 346 347 348 348 349 350 351 351 353 354 355 357 358 358 359 359 360 360 360 360 360 361 361 362 361 361 360 360 359 357 356 356 354 353 352 350 349 348 347 345 344 343 343 344 345 346 347 348 349 350 351 353 353 354 355 355 356 356 356 356 356 356 357 356 355 357 356 356 355 355 354 353 353 354 355 354 353 353 353 352 352 352 352
349 348 348 348 348 349 350 351 352 353 354 355 356 358 358 359 359 360 360 361 361 361 361 361 362 362 362 362 362 362 361 360 358 358 357 356 355 353 353 351 350 349 348 347 347 347 348 348 349 350 351 352 354 355 355 356 357 357 357 357 357 357 357 357 357 357 357 357 356 355 355 355 354 355 355 356 357 356 352 351 350 349 349 349 349
350 350 350 350 351 352 352 353 354 355 356 356 357 358 358 359 360 360 361 361 361 361 362 362 362 363 362 362 362 363 362 361 360 360 358 358 356 355 355 354 353 352 352 351 351 350 350 351 352 353 354 355 356 357 357 357 358 358 358 358 358 358 357 356 357 356 356 356 356 356 357 357 357 357 357 356 353 348 342 339 339 337 339 341 344
352 352 353 353 354 354 356 356 356 357 357 358 358 359 360 360 361 361 362 362 361 362 362 362 363 363 363 363 362 362 362 362 361 360 359 359 358 357 357 356 355 355 353 353 353 353 353 354 354 355 356 357 357 358 358 359 359 359 359 359 360 360 358 356 357 357 357 357 357 357 358 358 357 355 351 346 341 336 332 330 330 329 331 335 338
355 356 356 356 358 358 358 359 359 359 359 360 360 360 361 361 361 362 362 362 362 362 363 363 363 363 363 363 362 362 362 362 362 361 360 360 359 359 358 358 356 356 355 355 354 354 355 355 356 357 357 358 359 359 359 360 360 360 360 361 361 360 357 355 356 358 358 358 357 357 357 354 349 343 338 333 330 329 328 328 328 328 328 330 332
358 359 359 358 359 359 359 360 360 360 360 361 361 361 361 361 361 361 362 363 363 362 363 363 363 363 363 363 363 362 362 362 361 361 361 360 360 360 359 358 358 356 356 356 355 355 356 357 357 358 358 359 359 359 360 360 361 361 361 361 361 360 358 357 359 360 359 357 355 352 347 340 335 331 329 328 328 328 328 328 328 328 328 329 329
358 358 359 358 358 359 358 358 358 357 358 359 360 361 361 360 360 361 361 361 362 362 363 363 363 363 363 363 363 362 362 362 362 362 361 361 361 360 360 360 359 358 357 357 357 357 358 358 359 359 360 359 360 360 360 361 361 361 362 361 361 360 358 357 357 354 351 346 341 337 333 329 328 328 328 328 328 328 328 328 328 329 329 329 329
356 357 357 357 357 356 357 356 357 355 356 356 357 358 359 360 359 360 360 359 360 361 362 362 362 363 363 363 362 362 362 362 362 362 362 362 361 361 361 361 361 360 359 359 358 359 359 360 360 360 360 360 360 360 361 361 362 362 362 361 360 358 353 348 344 340 336 332 330 329 328 328 328 328 328 328 328 328 328 328 328 329 329 329 329
350 351 351 352 352 352 353 354 355 354 354 354 354 355 357 357 358 358 357 358 358 358 359 360 360 361 361 361 361 362 362 362 362 363 363 362 363 362 362 362 362 362 362 361 361 360 361 360 360 361 360 360 360 361 362 362 362 362 361 359 355 350 342 336 331 329 328 327 327 328 328 327 327 327 327 328 328 327 328 328 328 328 329 328 328
343 344 344 345 345 345 346 347 349 351 353 354 354 355 355 355 356 357 358 359 359 359 359 359 359 360 361 361 362 362 362 363 363 364 363 364 364 364 363 364 364 364 363 362 361 361 361 362 361 361 361 361 362 363 363 362 361 359 357 352 344 337 332 328 327 327 327 327 327 327 327 327 327 327 327 327 327 327 327 327 328 328 328 329 329
343 344 345 346 346 345 345 345 346 349 351 354 355 354 355 355 355 356 358 359 359 360 360 360 361 361 362 363 363 364 364 364 364 365 365 365 365 365 364 364 364 364 363 363 362 362 362 363 362 362 362 362 362 361 361 360 357 352 346 339 333 329 328 327 326 327 327 326 326 326 326 326 326 326 326 326 327 327 327 327 328 328 328 329 329
341 344 346 347 348 349 349 350 352 352 353 355 356 356 356 356 356 357 358 358 359 360 360 361 362 362 363 364 365 365 365 366 365 365 365 365 365 364 364 364 364 364 363 363 363 362 362 362 362 362 362 361 361 360 359 354 348 340 333 330 328 327 327 326 326 327 326 326 326 325 325 325 325 325 326 326 326 327 327 328 328 328 328 328 328
339 341 344 346 350 352 353 355 355 357 357 358 358 358 358 358 358 358 358 359 359 360 360 362 363 363 364 365 365 366 366 366 366 366 365 365 364 363 363 363 364 363 363 363 363 363 362 362 361 361 360 360 359 357 351 343 335 330 328 327 326 326 326 326 326 326 326 325 325 325 325 325 325 326 326 327 327 327 328 327 327 327 327 326 326
338 340 344 348 352 354 357 359 359 359 359 360 361 361 361 360 360 360 360 359 360 360 361 363 363 364 365 365 364 364 364 365 366 366 365 364 364 364 364 365 364 364 364 364 363 362 361 361 360 359 359 355 350 343 336 331 328 327 327 326 325 325 325 325 326 325 325 325 324 324 325 325 326 326 327 327 327 327 327 327 327 327 326 326 326
334 338 343 349 353 355 357 359 362 362 361 361 363 364 363 363 362 362 362 362 361 361 361 362 364 365 366 365 363 363 364 363 365 365 365 365 364 365 365 364 365 364 364 362 361 362 361 360 357 353 347 341 335 330 328 327 327 326 325 325 324 324 325 326 325 325 324 323 323 324 325 325 325 325 326 326 327 327 327 326 326 326 325 325 325
330 334 339 345 350 355 356 358 360 362 363 364 364 364 365 365 364 364 364 364 363 363 363 362 363 364 365 365 365 365 366 366 366 366 365 365 364 365 365 364 363 362 361 360 360 358 354 348 342 337 333 330 328 327 327 326 325 324 324 324 324 324 325 325 324 324 323 323 324 324 324 324 324 324 325 325 326 326 326 326 325 325 325 324 324
330 333 336 338 342 347 353 356 359 360 362 364 365 364 366 366 365 365 365 365 365 364 364 363 363 363 364 366 366 367 367 366 366 365 364 364 364 364 363 362 361 359 357 356 353 347 339 333 330 328 327 327 327 326 325 325 324 323 323 323 323 324 324 323 323 322 322 322 322 322 322 322 322 323 324 325 326 326 326 325 324 324 324 323 324
329 333 336 338 338 340 344 351 357 360 361 362 363 364 365 366 366 366 366 365 365 365 364 364 364 364 365 365 365 366 367 365 364 363 362 362 362 360 357 355 354 352 348 344 338 333 329 328 327 327 326 326 325 324 323 323 322 322 322 322 323 322 322 322 321 321 321 321 320 320 320 320 322 323 324 325 325 325 324 324 323 324 323 323 323
331 334 337 339 340 340 340 345 353 359 360 361 363 364 365 365 367 366 366 366 366 365 365 364 364 364 365 364 364 365 365 363 361 360 359 358 356 355 352 348 344 340 336 332 329 328 327 327 326 325 324 324 323 322 322 322 321 321 322 322 322 321 321 321 320 319 318 318 318 318 318 319 320 322 323 324 324 324 323 322 322 323 323 323 324
332 336 337 338 340 341 341 342 348 354 358 360 361 363 364 364 365 366 366 366 365 365 365 365 364 363 363 362 362 362 361 360 359 358 355 351 347 343 340 337 333 330 329 327 327 326 326 325 324 324 323 322 322 322 321 321 321 321 321 320 320 319 319 319 318 318 317 317 317 317 317 317 318 319 321 323 323 323 322 321 321 321 322 322 322
332 336 338 338 339 341 342 342 344 349 354 357 359 361 363 363 364 364 364 364 364 364 364 364 363 362 361 360 360 359 358 357 354 350 346 342 336 331 329 329 327 327 327 326 325 325 325 323 323 322 322 322 322 321 320 321 320 320 320 319 318 318 318 318 318 318 318 318 318 318 318 317 317 318 318 319 320 320 320 320 320 320 320 320 320
334 336 338 339 339 340 342 343 343 345 350 353 356 358 360 362 362 363 363 363 363 363 363 362 360 358 356 356 354 352 349 346 342 337 334 332 330 328 327 326 326 326 325 325 324 323 322 322 322 323 322 321 321 320 320 320 320 319 318 318 318 318 318 318 318 318 318 318 318 318 318 318 318 318 317 317 317 317 317 317 318 318 318 319 319
337 338 339 340 340 340 342 343 344 345 348 351 353 355 358 359 359 359 359 359 359 358 358 357 354 350 346 344 343 341 338 334 331 329 328 328 326 326 326 325 325 325 324 323 322 322 322 323 324 323 322 321 320 320 319 320 319 319 317 318 318 318 318 318 318 319 319 320 319 319 319 318 317 318 318 318 317 316 316 316 317 317 317 317 317
339 340 340 341 341 341 342 344 345 346 347 350 352 353 354 355 355 354 355 354 352 350 349 347 343 338 335 334 333 332 330 328 327 326 326 326 326 326 325 324 324 323 323 322 321 321 322 323 324 324 323 321 320 319 319 319 319 318 317 317 318 317 318 318 318 318 319 320 321 320 321 320 319 319 319 319 320 319 318 318 318 317 317 317 317
339 341 342 341 341 342 343 344 345 346 346 349 350 351 351 351 350 349 349 347 344 341 339 338 335 331 329 329 329 328 327 327 326 326 326 326 326 325 325 324 323 323 322 322 322 324 325 325 326 327 326 323 320 319 319 319 318 317 317 317 318 318 318 318 318 318 319 320 321 321 321 321 321 321 321 321 321 321 321 320 320 319 319 318 318
338 340 342 342 343 343 344 345 345 346 346 347 348 348 347 347 346 345 344 341 338 336 333 332 329 327 326 326 325 325 326 326 326 326 326 326 326 325 325 324 323 323 323 323 324 325 326 327 327 328 329 327 323 320 319 318 319 318 318 318 318 318 318 318 318 318 319 320 321 322 321 321 321 321 320 320 321 321 321 321 320 320 320 320 320
338 340 341 342 342 343 343 344 344 345 345 345 345 345 345 344 344 343 341 338 335 332 329 327 326 326 325 325 325 325 325 326 326 326 326 325 326 326 326 325 325 324 324 324 324 325 326 327 328 328 329 329 327 323 321 319 319 319 319 319 318 318 318 318 318 318 319 320 321 322 321 321 320 319 318 318 318 319 320 320 319 319 319 319 320
338 339 340 341 341 341 341 342 343 343 343 342 341 341 340 340 339 338 336 334 331 328 327 327 327 328 328 328 328 328 328 328 328 328 328 328 328 327 327 327 327 327 327 327 327 327 327 327 327 326 326 326 326 324 323 322 321 320 319 319 319 319 319 319 319 319 319 320 321 322 321 320 319 318 316 316 316 316 317 317 317 317 318 318 318
337 338 338 339 339 338 336 336 338 339 339 339 337 337 336 336 336 335 333 331 329 328 328 329 330 331 331 330 330 330 331 331 331 331 331 330 330 330 329 329 329 329 329 328 328 328 327 326 325 324 323 322 322 322 323 323 323 322 321 321 321 321 320 320 320 320 320 321 322 322 321 319 318 317 316 315 315 315 314 315 315 315 315 316 317
334 336 336 336 336 335 333 331 332 333 333 334 334 334 334 334 334 334 332 331 331 331 331 332 332 332 332 332 332 331 332 332 332 332 331 331 330 330 330 329 329 329 329 329 329 329 329 328 327 325 324 322 322 322 323 324 325 324 323 323 323 322 322 322 322 322 321 322 322 322 320 319 317 316 316 315 315 314 314 314 314 314 314 314 314
330 332 333 334 333 331 330 329 329 329 328 327 328 330 331 333 334 333 332 332 333 333 332 333 333 333 333 332 332 332 331 331 331 330 330 330 330 329 329 330 330 329 329 329 329 329 329 329 328 327 326 325 324 324 323 324 325 324 324 324 323 323 322 322 322 323 323 323 322 321 319 318 317 316 316 316 315 315 315 315 315 314 314 314 313
328 328 328 328 328 327 327 328 329 329 328 328 328 328 329 331 333 334 333 333 333 332 331 331 332 332 332 331 331 330 329 329 328 328 328 328 328 328 328 329 329 328 328 327 327 327 327 327 327 327 327 327 326 325 325 324 323 324 323 323 323 323 323 322 322 322 322 322 321 320 319 318 317 317 316 316 316 315 315 315 315 315 315 314 313
Wind_Speed
47 46 45 44 43 41 39 37 35 34 35 35 35 34 34 33 33 32 32 31 30 29 27 25 24 22 21 21 22 24 24 23 23 23 23 24 23 23 23 23 23 22 21 20 19 18 18 18 18 16 16 15 14 14 16 17 19 20 20 21 21 23 24 25 27 26 21 18 17 16 16 18 18 18 18 18 18 19 20 20 20 21 22 23 23
48 46 45 44 44 42 40 38 36 35 35 35 35 35 35 34 34 33 33 32 31 31 29 27 26 24 24 23 23 24 24 23 23 23 23 24 24 24 24 23 23 22 22 21 20 20 19 19 19 18 17 18 16 16 16 17 19 21 21 22 22 22 24 26 28 30 28 24 22 21 21 21 22 21 21 22 22 22 24 24 24 25 25 26 26
48 46 46 45 44 42 41 40 38 36 35 35 34 34 35 34 34 34 33 32 32 31 30 29 27 26 26 25 25 25 25 25 24 24 24 24 25 25 24 24 24 23 23 22 21 21 21 21 20 19 19 19 19 18 18 18 20 21 22 23 24 24 25 27 29 31 32 30 28 27 25 25 26 25 25 25 25 26 27 27 27 28 29 29 29
48 47 46 45 44 43 43 41 39 38 36 35 33 33 33 33 34 34 33 33 32 32 31 30 29 28 28 28 27 27 27 26 25 25 25 25 26 26 25 25 24 24 23 23 22 22 22 22 21 20 20 21 20 20 20 20 21 22 23 24 25 25 26 28 30 32 34 34 33 31 31 30 30 29 30 30 30 30 30 30 30 31 32 32 33
49 48 47 46 45 45 44 42 41 39 37 35 34 32 32 32 32 33 33 33 33 33 32 31 31 30 30 29 29 28 27 27 27 27 26 25 26 26 26 26 25 25 24 24 24 23 23 22 21 20 22 22 21 21 21 22 22 23 24 24 24 25 26 28 30 31 34 36 36 35 34 35 34 33 33 34 35 35 35 35 35 36 36 37 37
49 48 47 47 46 45 44 43 42 40 38 36 34 33 32 31 31 32 32 33 33 33 33 33 32 31 31 30 30 29 29 28 29 29 28 28 27 27 28 27 27 27 26 26 26 25 25 24 23 23 24 23 22 21 21 22 23 24 25 25 25 25 26 27 29 31 33 35 37 37 36 35 36 35 34 35 37 38 37 38 38 39 39 40 41
49 48 48 47 47 46 45 43 42 40 38 36 34 33 32 31 31 31 31 32 33 33 34 34 33 32 32 31 31 31 30 30 31 31 31 30 30 30 30 30 30 29 29 28 28 28 27 27 27 26 26 25 24 23 23 24 25 25 26 26 26 27 28 28 29 31 33 34 36 37 37 37 37 36 35 36 38 39 38 39 39 39 39 40 41
49 48 48 48 47 46 44 43 41 39 37 35 34 32 32 31 31 30 31 32 33 33 34 34 34 33 33 33 33 33 32 32 32 32 32 31 31 31 31 31 31 31 31 30 30 30 29 29 29 28 28 27 26 26 26 27 27 28 27 27 28 29 29 30 31 32 33 35 36 37 38 39 39 39 38 39 40 39 38 40 41 40 39 40 41
48 48 48 48 47 46 44 43 42 40 38 36 35 33 32 31 31 31 32 32 33 33 34 34 34 35 35 35 35 35 35 34 34 33 32 32 32 32 32 32 32 32 32 32 31 31 31 30 30 29 29 29 28 28 28 29 29 30 29 29 31 32 32 32 33 34 35 37 38 38 40 41 41 40 41 41 41 40 40 41 43 42 41 42 42
47 47 48 48 46 45 44 44 43 42 41 39 36 34 32 31 31 31 32 33 33 34 34 35 35 36 36 35 35 36 36 36 35 34 33 33 33 32 32 32 32 33 33 33 33 32 32 32 31 30 30 30 29 29 29 29 30 30 30 30 32 33 33 34 34 35 37 38 39 39 41 43 42 40 41 41 41 41 41 42 44 43 42 44 44
47 47 47 47 46 45 45 44 44 43 41 39 37 35 34 33 32 32 31 32 33 34 34 35 36 36 36 36 36 37 37 36 35 34 34 33 33 33 33 33 33 33 33 33 33 33 33 33 32 31 31 30 29 29 29 29 29 29 30 30 31 32 33 33 34 35 36 38 39 39 41 44 42 40 41 40 39 39 40 41 43 43 43 44 45
46 46 46 46 45 45 45 44 44 42 41 40 38 36 35 35 34 33 32 32 32 33 35 36 36 36 36 37 37 37 37 36 35 35 34 34 33 33 33 33 33 34 34 34 34 34 34 33 33 32 31 30 29 29 29 28 28 28 28 29 29 30 30 31 32 33 34 36 38 39 41 42 42 40 39 38 37 38 39 40 41 42 42 43 44
45 45 45 45 45 45 44 44 43 42 41 39 38 37 37 37 36 34 33 32 31 33 34 35 36 36 36 37 37 37 37 36 35 35 35 35 34 34 34 34 34 34 34 34 34 34 34 34 33 32 31 30 30 29 29 28 27 27 27 27 28 28 28 28 29 30 31 34 37 39 38 38 41 41 37 35 37 38 38 39 39 39 41 41 42
44 44 44 44 44 44 44 43 43 41 40 38 38 38 38 37 36 35 34 33 34 34 33 34 35 35 36 37 37 37 37 36 36 35 35 35 34 34 33 34 34 34 34 34 34 34 33 33 33 32 31 30 30 29 28 28 27 27 27 27 27 27 27 27 27 27 29 31 34 37 35 34 38 39 33 32 35 37 37 38 39 41 43 45 46
42 42 42 43 42 43 43 42 41 40 39 39 39 39 38 37 36 35 35 35 35 34 33 34 34 34 34 35 36 37 37 36 35 35 35 35 34 33 33 33 34 34 33 33 33 33 33 32 32 32 31 30 29 29 28 28 28 29 29 28 28 27 28 27 24 25 27 30 32 34 35 34 35 35 33 33 37 39 39 41 43 46 48 50 52
41 41 41 41 41 41 41 41 40 39 38 39 39 39 38 37 36 35 35 35 35 34 34 34 34 34 34 34 35 36 36 35 35 35 35 34 33 33 33 33 33 33 32 32 32 32 31 31 32 31 31 30 28 27 28 28 29 30 31 30 29 30 30 28 24 23 27 31 32 33 36 37 36 36 37 38 42 43 42 43 45 46 48 50 52
40 41 40 39 39 38 38 38 37 37 37 38 38 37 35 35 34 34 34 35 34 34 34 34 33 33 33 33 34 35 34 33 33 33 33 32 32 33 33 33 33 32 31 30 30 30 30 30 30 31 30 29 27 26 26 28 29 31 31 30 31 31 32 30 25 24 29 33 33 33 36 38 38 39 40 41 43 44 43 44 45 44 44 47 51
39 39 38 36 35 35 35 34 34 34 35 35 34 32 31 31 31 31 33 32 32 32 31 31 32 32 32 32 32 33 33 31 31 31 31 30 31 31 31 31 31 30 29 29 28 29 29 29 29 29 29 27 25 25 25 27 30 31 30 31 32 33 34 32 26 23 28 33 33 33 35 36 37 39 41 40 41 42 43 44 44 42 43 46 50
37 35 33 31 31 31 31 31 31 33 33 32 30 29 29 29 28 30 31 31 30 29 30 31 31 30 29 29 29 29 29 28 28 28 28 28 28 29 29 30 30 29 28 27 27 28 28 27 27 27 27 26 25 24 25 26 29 30 30 33 35 34 35 35 29 25 28 33 36 37 37 37 37 39 40 39 39 41 42 43 43 43 45 47 48
32 30 29 29 29 30 31 31 30 31 30 29 28 28 28 28 29 30 31 30 29 29 30 31 31 29 28 28 27 26 26 25 25 25 24 25 25 26 27 29 29 27 26 26 26 27 27 26 25 25 24 24 23 23 23 25 28 30 31 33 34 33 34 35 33 30 31 33 36 39 40 40 41 40 39 38 37 37 38 38 38 39 41 43 44
29 28 28 29 30 31 31 31 30 29 28 27 28 29 29 29 30 31 30 30 30 30 31 31 31 29 29 28 27 25 25 24 23 22 22 22 22 23 25 26 26 25 24 25 26 26 26 25 23 22 21 21 22 22 23 25 27 29 30 30 29 30 33 34 31 31 33 34 34 35 37 37 37 36 35 35 35 35 35 35 35 35 37 40 42
27 27 27 28 29 30 31 31 30 30 29 29 31 31 30 30 31 32 32 32 32 32 32 32 32 30 29 29 28 26 25 25 24 23 22 21 20 21 23 23 22 22 23 24 25 25 24 22 20 19 20 21 22 22 23 24 25 27 28 26 24 27 32 31 28 29 31 30 30 31 32 32 32 33 34 35 37 36 35 34 35 36 38 40 41
27 27 27 27 28 29 30 31 30 30 30 31 31 31 31 32 33 33 34 34 34 34 34 33 33 32 31 30 29 27 26 26 25 24 22 20 20 20 20 20 19 20 23 24 23 22 21 20 19 20 20 21 22 23 23 24 25 26 27 26 25 26 27 24 22 24 25 25 27 29 31 32 34 36 37 37 38 37 35 35 36 37 38 39 39
27 28 28 28 28 28 29 29 30 30 30 31 32 32 32 33 34 35 35 36 36 36 35 35 35 34 33 31 29 27 25 25 25 24 22 20 20 19 19 19 19 20 22 22 20 20 20 20 20 20 20 21 22 23 24 25 26 27 27 27 28 28 23 18 19 21 22 24 27 30 33 34 34 35 35 35 35 36 35 36 37 38 40 42 43
22 23 24 26 26 27 27 28 28 28 29 31 32 32 32 33 34 34 35 37 37 37 36 35 35 35 33 31 29 27 25 24 24 23 22 21 20 19 19 19 18 19 20 20 19 20 20 20 20 20 21 21 22 24 25 26 27 28 28 30 31 29 24 21 22 23 24 26 29 31 32 31 31 31 32 33 35 36 36 37 37 38 40 43 44
18 18 18 19 20 21 23 25 26 26 26 29 30 31 31 31 32 32 33 35 36 36 35 35 35 35 34 32 29 27 25 25 24 23 22 21 21 20 19 18 17 18 19 19 19 19 20 20 20 21 21 23 24 25 27 27 28 28 29 30 29 26 23 21 21 22 24 25 25 26 27 27 28 29 30 31 32 33 34 35 35 36 37 40 43
20 19 18 18 17 17 18 19 21 22 23 25 27 29 30 31 32 32 32 32 33 33 33 33 34 34 33 30 27 26 25 24 24 23 22 21 20 18 18 17 17 17 18 17 17 18 19 20 20 21 23 25 26 26 26 26 27 28 27 25 23 22 21 20 19 20 20 19 19 21 23 25 26 27 27 28 29 30 31 33 35 36 38 40 44
19 18 18 19 18 18 18 18 18 18 19 21 24 27 29 30 32 32 31 30 30 29 29 28 28 28 26 24 23 23 23 23 21 20 19 18 17 16 16 16 16 16 16 16 16 18 20 21 23 24 25 26 26 25 24 24 24 23 21 20 20 20 20 19 17 16 16 16 18 19 20 21 22 22 24 25 27 28 30 32 34 37 39 40 43
14 15 15 16 17 18 19 19 19 18 18 19 22 25 27 29 31 32 32 31 30 29 27 25 23 22 20 19 19 19 19 17 15 13 13 14 14 15 15 14 14 14 15 16 17 19 20 22 23 23 23 23 22 21 20 19 19 18 18 18 18 17 15 14 14 15 15 15 15 14 15 16 18 20 22 24 25 27 29 31 33 35 37 39 40
10 9 9 10 12 13 15 17 18 18 19 19 20 22 25 27 29 31 32 31 30 29 27 25 22 20 19 17 16 15 15 12 10 10 11 12 13 14 14 14 14 14 15 16 17 19 19 19 19 18 18 17 16 15 15 15 16 16 16 15 14 13 12 13 14 14 14 12 11 11 13 15 17 19 21 23 25 26 26 28 30 32 33 34 34
8 7 7 7 7 9 11 13 14 14 15 17 17 19 21 23 26 28 29 29 28 27 26 25 22 19 17 16 14 13 12 11 11 12 12 13 14 14 14 14 15 15 15 15 16 17 17 17 16 16 15 14 13 13 14 14 14 13 12 11 11 11 12 13 14 13 11 11 12 14 16 17 19 20 21 22 23 24 24 25 26 28 28 29 29
3 4 5 5 5 7 8 9 9 10 10 11 12 13 15 18 20 23 24 25 25 25 24 23 20 17 16 14 13 12 12 12 13 14 14 14 15 15 15 15 16 16 16 15 16 15 15 15 15 14 13 13 13 13 13 12 11 10 9 8 9 10 11 11 11 10 10 12 14 16 18 19 19 20 20 21 21 22 22 23 24 25 26 25 26
6 2 2 3 4 5 6 7 7 6 6 6 6 8 10 13 15 17 19 20 21 21 21 19 17 16 14 14 14 14 14 14 14 15 16 16 16 16 17 17 17 17 16 15 15 14 14 14 14 13 13 13 12 11 10 8 7 6 6 7 8 9 9 8 8 9 11 13 15 16 17 17 17 18 19 21 23 23 23 23 24 25 26 26 27
8 6 2 2 4 4 5 6 6 6 5 5 4 5 6 9 11 13 15 16 16 17 17 17 16 15 15 15 17 17 17 17 17 16 17 17 17 16 16 16 16 16 15 14 14 14 14 14 13 12 11 10 9 7 6 5 4 4 5 6 6 7 7 7 8 10 12 14 14 14 14 15 16 17 18 20 22 24 25 25 25 25 26 28 29
7 7 5 1 3 5 5 6 7 7 7 6 5 5 6 8 10 11 12 13 13 13 14 15 16 16 17 17 18 18 18 19 18 17 16 16 16 16 15 15 15 15 15 14 14 13 12 11 10 9 8 7 6 5 3 3 2 3 4 4 5 5 6 7 9 11 12 12 12 12 13 14 15 17 18 19 20 22 24 25 25 25 26 26 25
8 9 8 6 4 5 6 7 7 7 8 8 7 6 7 8 10 11 12 12 12 12 12 14 16 18 19 19 19 18 18 18 18 16 14 13 15 16 15 15 15 15 14 13 12 11 10 9 9 8 7 6 4 3 2 1 1 2 3 3 3 4 5 7 8 9 9 9 10 11 13 14 14 15 17 18 20 21 23 23 23 24 23 22 20
8 9 10 10 9 7 6 7 7 7 8 9 9 8 8 10 11 12 13 13 14 14 15 15 16 18 20 20 19 18 18 17 16 15 14 14 15 15 15 14 14 14 13 11 11 11 11 10 9 8 6 5 4 3 3 2 2 2 2 1 2 4 5 6 6 7 8 10 12 13 13 14 15 16 17 19 20 21 21 21 22 22 21 18 17
8 8 10 11 11 10 8 7 8 8 7 8 9 10 10 11 13 14 15 16 17 18 19 17 16 17 20 20 20 20 19 18 17 16 16 16 15 15 15 14 12 12 12 13 13 13 11 10 9 7 7 6 5 4 4 3 2 2 1 1 2 3 4 4 7 10 12 14 15 16 16 17 17 17 18 19 19 19 19 20 21 21 19 18 17
7 7 9 11 12 11 10 9 8 8 8 8 8 10 11 13 15 16 17 18 20 21 20 19 17 18 19 21 22 21 21 20 19 19 18 17 15 13 13 13 13 14 15 16 15 13 10 9 9 8 8 7 6 5 4 3 3 3 3 4 4 5 7 10 12 14 15 15 16 17 18 19 19 19 18 17 17 16 16 17 18 18 17 17 16
6 7 9 11 12 13 12 10 9 8 9 9 9 10 12 13 16 17 19 21 22 23 22 20 19 19 20 21 22 23 22 21 21 20 18 17 16 14 14 15 15 16 15 14 13 12 11 10 10 9 8 7 7 6 5 5 5 6 7 9 10 11 12 13 13 13 13 13 14 15 17 18 18 18 17 16 16 16 16 16 16 15 15 15 15
4 7 10 12 13 13 13 12 11 10 10 11 12 12 12 14 17 19 20 22 25 25 24 22 21 22 22 22 22 22 20 20 20 20 19 18 18 18 18 17 15 14 13 13 12 12 11 10 9 8 8 8 7 7 6 7 8 9 11 12 12 12 11 11 11 10 10 11 11 13 14 15 15 16 16 16 16 16 16 16 16 16 15 15 14
6 7 11 14 15 14 14 13 12 12 12 12 12 12 13 17 20 22 23 24 26 27 26 24 23 23 21 20 19 19 18 19 20 21 22 22 22 21 20 18 16 15 14 14 13 13 11 10 9 8 8 9 8 8 8 9 10 12 13 12 11 10 9 9 8 7 7 8 9 10 11 11 11 12 13 13 13 13 13 14 15 15 15 16 15
10 9 11 14 16 15 14 13 13 13 13 13 12 11 13 17 20 22 24 25 26 25 25 24 23 21 19 17 17 18 20 22 24 25 25 24 22 21 19 18 17 16 15 15 14 13 12 10 9 8 9 9 9 9 10 11 12 13 13 11 10 9 8 7 6 5 4 4 5 6 7 7 7 8 9 10 10 10 10 11 12 12 13 14 14
13 12 13 15 16 15 14 14 13 12 12 12 11 11 13 16 19 22 24 25 24 25 25 26 26 24 22 20 19 19 20 21 23 24 24 23 21 19 18 17 16 16 15 15 14 12 11 9 8 7 7 8 9 10 11 12 13 13 12 11 10 8 7 6 5 3 2 0 1 2 3 4 5 6 8 9 9 9 9 10 10 9 9 10 11
14 14 13 15 17 16 14 13 13 12 12 12 13 15 16 17 20 22 23 24 26 27 26 26 26 25 23 21 19 18 18 19 21 22 22 21 19 18 17 16 16 15 14 13 12 10 9 7 6 6 7 8 10 11 12 13 13 13 12 12 11 10 9 8 6 5 4 3 3 3 3 4 5 6 7 8 8 9 9 8 8 8 7 7 7
15 15 14 14 16 16 15 15 14 13 14 16 19 21 22 23 23 24 24 26 27 28 27 26 26 25 23 23 22 22 22 22 21 20 19 19 18 17 16 15 14 13 12 11 10 9 7 7 7 8 9 10 11 12 13 14 14 14 13 13 12 12 11 10 9 8 7 7 7 6 5 6 6 7 7 7 8 8 8 8 7 7 7 6 6
17 17 17 17 16 15 15 15 16 17 18 20 22 24 25 26 26 26 27 28 29 30 29 29 28 27 27 26 25 24 23 22 20 19 18 17 16 15 14 13 12 11 10 9 8 7 7 7 7 8 9 10 11 12 14 15 15 15 15 15 14 14 13 13 12 12 11 11 10 9 8 7 7 7 7 6 7 7 8 8 7 7 6 6 6
17 18 19 20 19 18 17 17 17 19 20 21 23 25 27 28 28 29 30 31 30 30 30 29 28 27 26 25 23 22 21 20 18 17 16 15 14 13 12 11 10 10 9 8 7 7 6 6 6 7 8 9 10 12 13 15 16 16 16 16 16 15 15 15 15 15 14 14 12 11 9 8 7 7 7 6 6 7 8 8 8 8 8 8 7
16 19 21 21 21 20 21 22 22 22 22 23 25 27 29 30 32 32 32 31 31 31 30 29 27 25 23 22 21 19 18 17 16 15 14 13 13 12 10 9 9 8 7 7 6 6 6 7 7 8 8 9 10 11 12 13 14 15 16 16 16 16 16 16 16 16 16 15 13 12 10 9 8 7 7 7 6 7 8 9 9 10 10 10 9
13 15 18 20 21 23 25 26 27 27 27 27 27 28 29 30 30 29 27 26 27 27 27 27 26 23 21 20 18 16 15 14 13 13 13 12 12 11 9 9 8 7 6 7 7 7 8 9 9 9 9 10 10 11 11 12 13 14 15 15 15 15 16 16 16 16 15 14 13 12 11 10 9 8 8 8 7 8 9 10 11 11 11 11 11
15 15 15 16 18 22 25 27 28 29 28 27 28 28 28 28 28 27 25 24 24 24 23 23 22 21 19 17 16 15 13 12 11 10 10 10 9 8 8 8 8 7 7 8 8 9 9 10 10 11 11 11 11 12 12 13 14 14 14 14 15 15 15 15 16 16 15 14 14 13 12 11 10 10 9 9 9 9 10 12 13 13 13 13 12
Wind_Direction
226 227 227 228 228 229 230 231 231 232 233 234 235 234 235 236 236 236 236 236 236 237 239 239 238 236 235 234 230 229 232 233 232 233 236 240 243 245 247 248 250 253 253 253 253 254 256 258 257 257 259 259 258 257 257 258 260 260 261 261 260 260 261 262 267 275 281 279 275 276 277 278 277 277 280 282 283 284 284 283 282 281 279 278 278
225 227 228 228 229 230 231 231 232 233 234 235 235 235 235 236 237 238 238 238 238 239 240 240 238 236 234 233 231 230 232 233 234 235 237 240 242 244 246 247 249 251 253 254 254 255 256 257 257 256 257 258 258 258 257 258 260 261 262 262 262 261 261 262 266 273 279 281 279 277 277 277 276 277 279 280 282 283 281 280 280 279 278 277 276
225 227 227 229 229 230 231 232 232 234 235 236 237 236 236 237 238 240 240 240 240 240 240 239 238 236 235 234 233 233 234 236 239 240 241 241 242 244 246 248 250 252 254 256 257 258 257 257 258 257 257 259 260 260 261 260 261 263 264 264 265 264 262 262 264 269 275 280 281 280 280 279 280 280 281 281 281 280 279 279 279 279 278 277 276
224 226 227 228 230 230 231 232 232 233 235 236 238 238 239 239 240 241 242 242 242 241 240 239 238 237 236 235 235 235 236 238 241 242 242 243 243 245 246 248 251 253 254 257 258 259 260 260 260 260 260 260 261 261 262 263 264 265 267 267 268 269 267 266 266 268 272 276 280 282 283 284 284 285 285 285 284 283 283 283 282 281 280 280 279
222 224 226 228 229 230 231 232 233 233 234 236 237 239 240 241 242 242 243 243 243 241 240 239 238 237 236 235 235 236 237 239 240 241 242 243 244 246 247 249 251 253 255 257 258 259 261 263 264 263 263 263 263 262 262 264 265 267 268 269 271 273 273 272 271 271 272 275 280 283 285 286 286 287 288 288 288 288 287 287 286 285 284 283 282
221 223 225 227 228 230 231 232 233 234 235 236 237 238 240 241 242 242 243 244 243 243 242 241 240 238 237 236 237 237 239 240 242 243 245 246 247 248 249 250 252 254 256 257 258 259 261 263 264 264 264 265 266 265 265 265 266 267 268 270 272 273 274 275 275 275 275 277 281 284 286 287 287 288 288 288 289 289 288 287 287 286 286 286 287
219 222 224 226 228 230 231 232 234 234 235 236 237 238 240 241 242 242 242 243 243 243 243 242 242 240 239 239 239 240 242 243 245 246 248 249 250 250 251 252 254 256 257 258 258 259 260 261 263 264 264 266 266 267 267 268 269 270 271 273 274 274 274 276 276 277 278 280 282 284 287 288 288 289 290 290 289 289 290 291 291 291 292 292 292
219 221 223 225 228 230 231 233 234 234 235 236 237 238 239 240 241 242 242 242 241 242 243 243 243 243 242 242 243 245 246 247 247 248 249 250 251 252 252 254 256 258 259 260 260 260 260 261 262 263 264 265 266 267 268 270 271 273 274 276 277 277 278 279 279 280 280 281 283 285 287 288 289 290 292 292 292 292 295 295 295 295 296 296 296
219 221 222 225 228 230 231 232 233 234 234 235 236 237 238 239 240 241 241 240 240 240 241 242 243 244 245 245 247 248 249 249 248 248 249 249 250 252 254 256 258 260 262 263 264 263 263 263 263 264 265 266 267 268 269 270 272 273 274 276 278 279 280 281 282 283 284 285 286 288 289 289 290 292 293 294 294 296 297 296 295 296 297 297 296
219 221 223 226 228 229 231 232 233 233 234 234 235 235 236 238 239 241 242 241 241 241 241 242 243 243 245 246 247 249 249 249 248 248 249 250 252 254 256 258 260 262 264 265 266 266 266 267 267 268 269 270 270 270 270 271 272 273 274 276 278 280 282 283 284 286 288 289 289 291 291 291 292 293 294 294 295 296 296 296 296 298 299 298 297
220 222 225 227 228 229 230 231 232 233 234 234 235 235 236 237 239 241 243 243 243 243 243 243 243 243 244 245 247 249 249 249 249 249 250 251 253 255 257 259 261 262 264 265 266 267 269 270 271 272 274 274 274 273 273 273 274 275 276 277 279 282 284 286 287 288 290 291 291 292 291 291 293 294 294 295 297 298 299 299 298 298 298 298 297
220 223 226 227 228 229 230 231 232 233 234 235 235 236 236 237 239 240 242 243 244 244 243 243 242 242 243 245 247 248 249 249 250 251 252 253 254 256 258 260 262 263 265 266 267 269 270 272 273 274 275 276 276 277 277 277 277 278 279 279 280 282 284 285 287 289 291 291 292 291 291 293 295 295 295 298 300 300 299 298 297 297 297 296 294
220 223 225 226 228 229 230 231 233 234 235 236 237 237 238 239 239 239 240 241 243 243 244 243 243 242 243 244 245 247 248 249 250 251 253 254 256 258 259 261 263 265 266 268 270 271 273 275 275 276 277 278 279 279 280 281 282 283 284 283 282 283 285 287 289 291 291 291 290 290 291 293 294 293 296 299 299 297 296 295 294 294 294 292 290
219 222 224 226 228 230 231 232 234 235 236 237 238 238 239 240 241 241 241 241 242 243 243 244 244 243 243 243 244 246 247 247 249 251 252 255 257 259 261 263 265 267 268 270 272 273 274 276 277 278 278 279 280 281 282 284 286 287 288 286 285 287 290 292 294 294 293 290 288 289 291 291 291 293 298 298 293 292 292 291 291 292 291 289 289
220 223 225 226 229 230 232 233 235 237 237 238 238 239 240 241 242 243 243 243 243 243 244 245 245 245 244 245 246 246 246 246 248 250 252 255 258 260 262 263 265 266 268 269 271 272 274 276 276 277 278 279 280 282 284 287 288 289 290 289 289 292 294 297 300 299 295 290 289 289 289 289 290 292 294 292 289 289 289 290 289 289 288 287 287
221 224 226 228 230 231 232 234 235 237 238 238 239 240 241 242 243 243 244 245 245 246 246 246 246 246 246 247 248 247 246 246 248 250 252 255 258 260 261 262 264 265 266 267 269 270 272 274 275 276 278 280 282 284 286 288 289 289 290 291 293 295 296 300 305 301 292 288 288 288 287 287 289 289 288 289 289 288 287 288 288 284 283 285 286
222 224 226 229 231 232 234 235 236 237 238 238 239 241 242 243 243 244 244 245 245 245 246 247 247 247 247 247 247 247 246 247 249 250 253 256 258 260 261 262 264 265 266 266 268 269 270 272 274 277 279 281 284 287 288 289 288 288 289 291 294 295 294 296 302 297 286 283 282 282 282 283 285 287 287 289 293 292 288 287 289 286 283 284 285
224 226 228 231 233 234 235 236 237 237 237 238 240 241 242 242 243 243 244 244 245 246 247 248 248 249 248 247 248 249 248 249 250 252 254 257 258 260 261 263 264 265 266 266 267 268 269 271 274 277 279 282 285 287 288 288 287 287 289 290 292 293 290 289 294 288 277 278 282 281 281 282 284 286 288 290 295 295 290 288 291 290 285 283 283
225 228 231 234 235 235 236 236 236 237 237 238 240 240 241 242 242 243 244 245 246 246 247 249 249 250 250 250 251 253 253 253 253 253 255 256 258 259 261 262 263 264 265 266 268 269 270 273 275 278 280 284 287 288 290 289 288 289 291 289 290 293 289 287 290 286 278 283 289 290 290 291 291 292 293 294 296 295 292 291 292 290 285 283 284
228 230 232 234 235 235 236 236 237 237 238 240 242 243 243 243 244 244 245 246 247 247 248 249 250 251 252 253 254 255 256 256 256 256 257 257 257 259 260 261 262 264 266 268 270 272 274 277 279 282 285 288 291 292 292 291 290 290 290 287 289 293 288 285 290 292 290 292 294 294 296 297 297 299 300 302 303 302 300 298 296 293 288 284 285
228 230 233 234 236 237 238 239 240 241 243 245 246 246 247 247 247 247 247 248 249 249 249 250 251 252 253 254 255 255 256 258 258 258 258 258 257 258 259 261 264 267 270 271 273 275 278 281 285 288 290 292 292 292 291 290 289 288 287 287 290 288 282 282 289 292 292 294 296 297 300 301 302 305 306 308 309 309 308 306 302 300 294 288 285
227 230 232 234 237 239 241 243 244 246 247 248 249 250 251 251 251 251 251 250 251 252 252 253 253 254 255 255 256 257 257 258 259 259 259 258 258 258 260 263 267 270 272 272 274 277 281 286 289 291 291 291 291 290 290 290 290 291 291 291 291 282 274 276 287 292 292 296 300 302 305 307 308 309 310 311 312 311 311 309 305 303 298 292 288
226 228 231 234 237 239 242 244 246 248 250 250 251 253 254 253 253 253 252 252 252 253 254 254 254 255 256 257 258 258 259 259 260 260 260 260 260 260 261 265 268 270 271 273 276 281 286 288 288 288 289 289 289 290 291 292 293 295 296 295 293 282 270 269 283 292 296 302 304 305 308 310 310 310 311 311 311 311 310 308 305 302 297 291 286
225 228 231 234 237 239 241 244 247 249 251 251 252 253 253 254 254 254 254 253 253 254 255 255 255 256 257 258 259 260 260 261 261 261 261 261 261 262 264 266 267 268 271 274 279 282 282 282 283 284 285 286 287 289 291 293 294 295 296 296 293 287 280 283 299 306 307 308 307 307 308 308 308 309 310 310 309 308 307 305 303 299 295 291 287
220 224 228 231 235 237 239 241 243 246 249 250 251 251 251 252 252 253 253 253 253 254 255 255 256 257 258 260 261 261 262 262 262 263 262 262 262 262 264 265 266 268 270 273 275 275 275 277 279 280 281 282 283 285 287 290 292 294 295 296 294 293 296 306 315 315 312 309 307 305 306 307 308 309 309 308 308 307 307 305 303 300 297 295 294
201 203 208 214 220 226 230 234 236 238 240 244 248 250 250 250 251 252 253 253 253 254 255 256 256 257 258 260 261 263 264 264 264 264 264 263 263 263 264 265 265 265 266 266 267 268 270 271 272 273 273 274 277 281 286 289 291 294 296 297 298 300 305 311 314 311 309 307 306 305 307 307 307 307 307 307 307 309 309 308 307 306 305 304 302
195 196 199 201 205 211 218 224 228 230 231 234 239 244 246 248 249 250 250 251 252 253 253 254 255 256 257 260 263 264 265 265 265 265 264 264 264 263 263 263 262 260 261 260 260 260 261 263 263 265 268 271 276 282 285 288 291 294 297 299 302 305 309 312 314 311 309 307 307 307 307 307 307 308 309 308 309 310 310 309 309 309 309 310 309
199 202 206 209 212 214 217 221 225 227 228 229 231 235 238 242 245 247 248 249 251 252 253 254 254 256 259 262 264 265 265 265 267 268 268 267 265 263 261 260 258 257 258 257 255 253 254 257 259 263 267 271 275 279 281 285 290 293 297 300 303 307 311 314 316 315 313 312 312 311 309 309 309 310 309 309 309 310 311 312 313 312 312 313 313
201 206 210 214 217 219 221 223 226 228 230 231 231 231 233 236 240 243 246 249 250 252 254 256 257 259 261 263 265 266 267 269 271 272 271 266 262 259 257 254 252 251 252 251 250 249 251 255 258 262 265 268 271 275 280 284 289 292 295 299 302 306 311 314 315 316 317 316 315 313 311 311 311 311 312 313 314 316 317 316 314 313 314 315 316
194 200 204 208 212 215 218 220 223 226 230 234 235 235 234 235 238 241 244 246 247 249 251 253 255 257 258 260 262 264 265 265 260 257 255 252 249 247 244 240 240 241 240 241 242 245 247 251 254 257 260 264 268 274 279 283 286 289 293 297 300 305 310 314 316 317 316 317 318 318 319 320 321 321 322 322 322 322 320 318 317 318 320 321 322
183 188 196 206 211 213 214 215 217 221 227 233 238 238 237 237 239 241 243 244 245 245 247 249 250 250 251 253 255 255 252 247 240 238 238 237 234 231 228 227 229 230 230 231 236 239 242 244 247 251 255 259 264 269 274 278 282 286 291 296 302 310 315 318 318 317 317 320 325 327 330 333 334 333 332 330 330 329 326 324 327 331 334 336 339
151 180 198 209 213 214 215 214 214 217 223 231 239 241 239 239 240 241 243 244 244 244 245 246 246 245 243 242 241 239 239 238 234 229 227 226 225 224 222 222 224 226 226 228 231 234 236 238 240 243 246 250 257 262 265 269 274 280 289 300 310 315 316 314 311 311 317 325 331 335 339 342 343 344 343 343 343 343 342 343 346 348 350 354 357
60 71 191 215 221 221 217 214 214 217 221 230 241 248 248 246 244 243 243 244 245 245 244 243 242 239 234 230 230 232 235 237 233 224 219 219 220 221 221 221 223 226 229 231 231 232 233 234 234 236 239 243 248 250 251 255 265 278 294 306 312 311 306 302 305 313 324 331 337 341 344 346 350 354 356 357 359 1 2 1 0 1 3 6 8
52 48 55 222 231 231 225 221 217 214 215 222 234 249 254 252 250 248 246 245 245 245 242 237 234 231 226 224 227 231 233 236 234 227 220 218 221 224 224 223 223 224 225 227 229 230 232 234 234 234 233 231 229 229 235 248 268 290 301 303 302 296 294 301 313 323 332 338 342 345 346 350 356 1 3 5 6 8 9 8 7 7 8 10 12
44 37 30 336 257 246 239 232 224 218 216 215 220 238 251 253 250 248 248 247 246 244 240 233 229 227 224 223 226 229 230 233 233 228 221 218 221 224 222 220 219 219 219 220 224 226 228 227 221 213 207 206 208 215 230 252 277 293 292 286 283 285 296 311 321 329 338 343 345 348 353 359 4 6 7 9 10 10 11 10 9 9 10 11 13
35 25 18 2 328 283 256 241 229 223 221 216 215 227 243 249 249 247 244 243 239 236 234 231 229 227 225 225 227 229 227 228 227 221 211 208 213 215 213 212 213 213 213 214 215 214 207 197 190 187 188 192 195 196 197 214 248 262 262 263 274 294 311 323 330 339 351 359 4 7 11 14 17 16 15 15 16 16 15 13 11 12 13 15 18
30 17 8 360 352 334 295 259 237 227 227 224 221 223 233 243 248 247 242 239 234 228 226 227 230 228 224 222 223 222 217 214 211 205 198 197 201 202 202 203 205 204 201 197 195 193 187 180 178 181 180 175 168 161 158 171 201 221 235 262 309 327 334 342 358 18 34 37 36 34 32 30 29 26 24 22 22 21 20 18 17 18 19 21 27
28 16 2 351 348 347 334 294 254 237 235 235 231 229 231 237 241 242 240 239 236 230 227 228 231 229 223 218 214 208 203 198 194 191 190 191 193 196 196 195 192 188 184 179 176 175 175 172 170 168 163 154 147 144 147 154 165 165 134 57 21 9 19 49 67 69 66 60 54 50 47 42 38 34 28 26 26 27 27 25 24 25 26 29 35
18 6 356 344 335 334 336 322 285 257 250 246 241 237 236 237 239 240 238 237 234 230 227 227 227 223 216 209 201 196 194 192 188 186 186 183 181 182 182 177 172 171 172 169 165 163 165 164 159 154 148 142 137 137 140 141 136 126 108 91 87 90 95 96 91 82 74 67 60 55 50 47 44 39 31 27 27 27 25 23 24 25 27 29 32
2 347 341 336 327 319 320 322 308 281 262 256 252 246 242 242 242 240 238 236 231 225 221 221 219 212 208 204 198 193 192 190 183 179 178 174 168 161 156 156 160 163 164 162 159 158 157 154 150 145 141 137 135 135 138 140 136 129 122 116 113 111 108 101 93 83 75 67 59 54 50 47 45 41 35 30 26 20 15 14 15 17 19 21 22
336 325 321 321 319 313 309 310 308 293 275 265 261 256 252 247 241 237 236 233 227 219 215 214 209 201 197 196 192 188 185 181 174 169 165 162 156 151 148 150 156 159 158 156 154 152 150 148 146 141 137 136 139 142 146 148 145 140 135 129 123 116 109 99 89 80 71 62 54 49 45 42 39 38 35 31 27 24 20 18 16 14 13 16 17
287 297 304 308 310 307 303 300 299 293 284 274 267 261 255 245 235 228 225 221 216 209 204 198 192 184 180 178 179 178 175 170 164 157 152 150 149 149 150 153 157 158 156 153 151 150 151 151 149 144 142 144 148 152 154 154 154 151 146 140 133 125 116 106 95 81 67 56 49 43 38 34 30 28 26 21 17 18 20 20 19 18 17 14 14
271 272 285 295 299 299 296 291 289 287 283 277 269 259 249 237 226 217 212 208 202 195 185 176 170 166 161 161 165 166 163 160 156 151 149 149 150 151 153 156 158 159 158 157 158 161 163 163 161 158 157 159 161 165 166 165 164 163 160 156 152 147 142 135 124 107 82 60 49 40 33 27 18 10 4 359 356 357 358 357 1 10 16 16 14
273 268 273 283 288 288 285 280 277 277 276 269 256 243 232 220 209 202 197 191 182 175 169 165 161 156 148 145 147 149 148 148 149 150 151 152 153 154 156 159 162 164 165 167 169 172 175 177 179 179 178 178 179 181 182 180 177 177 177 176 177 177 176 173 170 163 156 110 21 16 11 6 355 346 343 343 343 343 342 340 340 345 356 5 10
273 264 263 270 275 275 270 264 262 262 259 245 229 218 210 200 194 191 188 180 172 167 163 159 155 151 145 144 149 153 153 153 154 154 155 157 158 160 163 165 167 171 173 176 179 183 188 196 205 210 211 208 202 199 198 196 193 194 195 196 199 202 203 205 209 215 227 247 266 283 301 313 319 323 328 331 332 331 332 335 339 342 343 345 354
268 253 243 246 254 256 252 245 238 233 227 219 211 205 199 195 193 191 186 178 170 163 158 153 152 153 154 155 158 159 160 160 159 158 159 163 166 167 168 170 173 178 182 186 191 199 208 220 230 232 231 227 221 216 214 212 210 211 212 214 216 219 220 224 229 235 243 252 260 266 278 292 301 307 316 323 324 322 320 321 327 336 340 342 347
255 236 221 218 221 219 217 220 220 214 207 202 198 192 186 183 181 176 170 166 163 160 158 156 156 156 156 157 157 158 159 159 157 156 158 162 165 166 169 171 174 178 184 191 200 211 220 229 236 238 237 238 236 232 228 226 224 224 225 227 230 232 234 237 240 244 248 254 258 262 270 281 289 295 303 312 315 315 315 315 317 321 324 325 331
237 220 207 203 201 191 180 180 187 193 193 190 184 177 172 168 166 163 159 158 158 158 158 157 156 156 158 159 161 162 162 160 157 157 156 157 160 162 164 167 169 173 180 187 196 208 220 232 243 247 248 247 245 242 238 235 233 232 233 234 236 239 242 244 246 248 249 251 254 259 266 275 283 287 291 297 304 310 313 314 315 316 314 311 310
218 208 198 192 187 178 166 158 157 161 167 171 170 167 163 160 157 156 154 154 154 156 157 158 159 161 163 163 163 164 164 163 162 161 160 160 161 164 168 172 175 178 184 193 206 220 233 242 248 251 251 250 249 247 244 242 239 238 239 239 240 241 244 246 248 249 248 249 251 255 261 268 274 280 285 290 299 308 312 313 314 315 314 310 306
180 186 187 183 176 166 159 154 149 146 143 142 143 145 149 152 152 151 151 153 155 157 158 160 162 163 164 164 164 166 167 166 166 166 165 165 167 172 179 184 189 197 211 224 234 242 247 251 254 255 254 252 253 253 252 249 246 245 244 243 243 244 246 248 250 249 248 248 249 253 257 262 266 272 279 286 295 305 309 311 312 314 315 314 310
145 149 152 154 153 150 147 145 144 141 136 132 129 130 134 141 148 153 156 160 161 161 160 159 161 163 165 166 166 166 166 163 160 159 160 161 165 174 185 195 205 217 230 240 244 247 249 252 255 258 257 256 254 254 254 254 252 249 247 246 246 246 246 247 250 250 249 249 250 251 253 256 260 268 277 285 291 299 305 307 307 307 309 312 314